Weather History for Kansas City International, MO

Change the Weather History Date:

Saturday, November 3, 2012

  Actual Average Record
Temperature  
Mean Temperature 46 °F 50 °F  
Max Temperature 58 °F 60 °F 82 °F (1978)
Min Temperature 34 °F 40 °F 10 °F (1991)
Degree Days  
Heating Degree Days 19 15  
Month to date heating degree days 40 44  
Since 1 July heating degree days 442 404  
Cooling Degree Days 0 0  
Month to date cooling degree days 0 0  
Year to date cooling degree days 1834 1358  
Moisture  
Dew Point 30 °F    
Average Humidity 56    
Maximum Humidity 76    
Minimum Humidity 36    
Precipitation  
Precipitation 0.00 in 0.09 in 1.73 in (1938)
Month to date precipitation 0.00 0.25  
Year to date precipitation 19.58 35.43  
Snow  
Snow 0.00 in 0.10 in 0.50 in (1997)
Month to date snowfall 0.0 0.1  
Since 1 July snowfall 0.0 0.3  
Since 1 September snowfall 0.0 0.3  
Snow Depth 0.00 in    
Sea Level Pressure  
Sea Level Pressure 30.12 in    
Wind  
Wind Speed 7 mph (NNW)    
Max Wind Speed 15 mph    
Max Gust Speed 18 mph    
Visibility 10 miles    
Events      
T = Trace of Precipitation, MM = Missing Value Source: NWS Daily Summary

Daily Weather History Graph

Daily Weather History Graph

Search for Another Location

Airport:

Trip Planner

Search our weather history database for the weather conditions in past years. The results will help you decide how hot, cold, wet, or windy it might be!

Date:

Astronomy

Nov. 03, 2012 Rise Set
Actual Time 7:49 AM CDT 6:14 PM CDT
Civil Twilight 7:21 AM CDT 6:42 PM CDT
Nautical Twilight 6:49 AM CDT 7:14 PM CDT
Astronomical Twilight 6:18 AM CDT 7:45 PM CDT
Moon 9:57 PM CDT (11/3) 11:53 AM CDT (11/3)
Length of Visible Light 11h 21m
Length of Day
10h 25m
Waning Gibbous, 80% of the Moon is Illuminated
Nov 3
Waning Gibbous
Nov 6
Last Quarter
Nov 13
New
Nov 20
First Quarter
Nov 28
Full

Hourly Weather History & Observations

Time (CDT) Temp. Windchill Dew Point Humidity Pressure Visibility Wind Dir Wind Speed Gust Speed Precip Events Conditions
12:53 AM 43.0 °F 37.2 °F 32.0 °F 65% 29.98 in 10.0 mi North 10.4 mph - N/A   Mostly Cloudy
1:53 AM 41.0 °F 35.8 °F 30.9 °F 67% 29.98 in 10.0 mi North 8.1 mph - N/A   Mostly Cloudy
2:53 AM 41.0 °F 35.2 °F 30.9 °F 67% 29.99 in 10.0 mi NNE 9.2 mph - N/A   Mostly Cloudy
3:53 AM 37.9 °F 32.7 °F 30.0 °F 73% 30.01 in 10.0 mi North 6.9 mph - N/A   Mostly Cloudy
4:53 AM 37.0 °F 31.0 °F 28.9 °F 73% 30.03 in 10.0 mi NW 8.1 mph - N/A   Mostly Cloudy
5:53 AM 37.9 °F 32.1 °F 30.0 °F 73% 30.06 in 10.0 mi NW 8.1 mph - N/A   Mostly Cloudy
6:53 AM 36.0 °F 29.6 °F 28.9 °F 76% 30.08 in 10.0 mi NW 8.1 mph - N/A   Partly Cloudy
7:53 AM 35.1 °F 29.3 °F 28.0 °F 76% 30.11 in 10.0 mi NNW 6.9 mph - N/A   Scattered Clouds
8:53 AM 36.0 °F 29.0 °F 28.9 °F 76% 30.14 in 10.0 mi NNW 9.2 mph - N/A   Scattered Clouds
9:53 AM 43.0 °F 37.2 °F 30.9 °F 62% 30.15 in 10.0 mi NNW 10.4 mph - N/A   Scattered Clouds
10:53 AM 46.0 °F 41.0 °F 30.0 °F 54% 30.17 in 10.0 mi North 10.4 mph - N/A   Scattered Clouds
11:53 AM 50.0 °F - 30.9 °F 48% 30.17 in 10.0 mi NNW 9.2 mph - N/A   Scattered Clouds
12:53 PM 53.1 °F - 30.9 °F 43% 30.17 in 10.0 mi NNW 9.2 mph 17.3 mph N/A   Scattered Clouds
1:53 PM 55.0 °F - 30.9 °F 40% 30.16 in 10.0 mi NNW 10.4 mph 16.1 mph N/A   Partly Cloudy
2:53 PM 55.9 °F - 30.9 °F 39% 30.15 in 10.0 mi North 9.2 mph - N/A   Partly Cloudy
3:53 PM 57.0 °F - 30.9 °F 37% 30.16 in 10.0 mi North 9.2 mph - N/A   Partly Cloudy
4:53 PM 57.0 °F - 30.9 °F 37% 30.15 in 10.0 mi North 10.4 mph - N/A   Partly Cloudy
5:53 PM 52.0 °F - 30.9 °F 45% 30.16 in 10.0 mi North 6.9 mph - N/A   Partly Cloudy
6:53 PM 51.1 °F - 30.0 °F 44% 30.18 in 10.0 mi NW 4.6 mph - N/A   Partly Cloudy
7:53 PM 50.0 °F - 30.0 °F 46% 30.19 in 10.0 mi NNW 5.8 mph - N/A   Clear
8:53 PM 46.9 °F - 30.0 °F 52% 30.19 in 10.0 mi North 3.5 mph - N/A   Clear
9:53 PM 46.0 °F 43.9 °F 30.0 °F 54% 30.20 in 10.0 mi NNE 4.6 mph - N/A   Clear
10:53 PM 45.0 °F 43.5 °F 30.0 °F 56% 30.20 in 10.0 mi North 3.5 mph - N/A   Clear
11:53 PM 44.1 °F - 30.0 °F 58% 30.20 in 10.0 mi Calm Calm - N/A   Clear